KII2183 KCVG-KCID

Flight info

Callsign KII2183
Flight time 1h 5m
Altitude 32000
Route LOVEY8 CADIZ KG66K IOW/N0364F160 V67 CID
Aircraft B738/M-SDE2E3FGHIRWXY/LB1

Departure

Time 2026-04-30 01:20
Airport Cincinnati Northern Kentucky International Airport (KCVG)

Arrival

Time 2026-04-30 02:25
Airport The Eastern Iowa Airport (KCID)
Time Latitude Longitude Altitude Speed Heading
2026-04-30 01:08 39.03024 -84.65075 884 ft 0 kts 59°
2026-04-30 01:15 39.03040 -84.65039 884 ft 10 kts 59°
2026-04-30 01:15 39.03097 -84.64996 884 ft 11 kts 358°
2026-04-30 01:16 39.03177 -84.64997 883 ft 15 kts
2026-04-30 01:16 39.03312 -84.64995 884 ft 20 kts
2026-04-30 01:16 39.03453 -84.64995 885 ft 21 kts 359°
2026-04-30 01:16 39.03607 -84.64996 880 ft 24 kts
2026-04-30 01:17 39.03779 -84.64995 879 ft 24 kts 360°
2026-04-30 01:17 39.03939 -84.64988 875 ft 23 kts 349°
2026-04-30 01:17 39.04106 -84.64992 874 ft 24 kts
2026-04-30 01:17 39.04266 -84.64991 875 ft 23 kts 359°
2026-04-30 01:18 39.04405 -84.64991 875 ft 13 kts 360°
2026-04-30 01:18 39.04462 -84.65061 874 ft 13 kts 274°
2026-04-30 01:18 39.04461 -84.65107 874 ft 2 kts 270°
2026-04-30 01:18 39.04461 -84.65124 874 ft 4 kts 271°
2026-04-30 01:19 39.04462 -84.65206 873 ft 11 kts 271°
2026-04-30 01:19 39.04504 -84.65299 871 ft 17 kts 347°
2026-04-30 01:19 39.04592 -84.65303 871 ft 10 kts 350°
2026-04-30 01:19 39.04628 -84.65372 871 ft 12 kts 271°
2026-04-30 01:20 39.04628 -84.65675 854 ft 72 kts 270°
2026-04-30 01:20 39.04630 -84.66665 878 ft 147 kts 270°
2026-04-30 01:20 39.04620 -84.68163 1310 ft 179 kts 272°
2026-04-30 01:20 39.04613 -84.69757 2450 ft 176 kts 275°
2026-04-30 01:21 39.04608 -84.71375 3280 ft 188 kts 275°
2026-04-30 01:21 39.04616 -84.73172 3510 ft 214 kts 275°
2026-04-30 01:21 39.04619 -84.75151 3968 ft 226 kts 274°
2026-04-30 01:21 39.04620 -84.77269 4350 ft 246 kts 273°
2026-04-30 01:22 39.04616 -84.79461 5188 ft 249 kts 272°
2026-04-30 01:22 39.04611 -84.81739 6050 ft 254 kts 272°
2026-04-30 01:22 39.04605 -84.83986 6941 ft 254 kts 272°
2026-04-30 01:22 39.04600 -84.86277 7932 ft 252 kts 271°
2026-04-30 01:23 39.04614 -84.88521 8903 ft 250 kts 271°
2026-04-30 01:23 39.04633 -84.90743 9928 ft 247 kts 271°
2026-04-30 01:23 39.04650 -84.92989 10538 ft 259 kts 271°
2026-04-30 01:23 39.04807 -84.95405 10704 ft 285 kts 284°
2026-04-30 01:24 39.05529 -84.97886 10911 ft 308 kts 290°
2026-04-30 01:24 39.06363 -85.00516 11207 ft 325 kts 290°
2026-04-30 01:24 39.07205 -85.03207 11814 ft 330 kts 290°
2026-04-30 01:24 39.08150 -85.05909 12624 ft 332 kts 292°
2026-04-30 01:25 39.09168 -85.08578 13440 ft 333 kts 293°
2026-04-30 01:25 39.10218 -85.11292 14141 ft 336 kts 293°
2026-04-30 01:25 39.11248 -85.13966 14762 ft 339 kts 293°
2026-04-30 01:25 39.12292 -85.16703 15390 ft 342 kts 292°
2026-04-30 01:26 39.13341 -85.19472 16025 ft 345 kts 292°
2026-04-30 01:26 39.14395 -85.22267 16651 ft 348 kts 292°
2026-04-30 01:26 39.15455 -85.25088 17259 ft 351 kts 292°
2026-04-30 01:26 39.16524 -85.27938 17865 ft 355 kts 292°
2026-04-30 01:27 39.17599 -85.30810 18450 ft 358 kts 292°
2026-04-30 01:27 39.18682 -85.33704 18988 ft 359 kts 292°
2026-04-30 01:27 39.19769 -85.36610 19553 ft 360 kts 292°
2026-04-30 01:27 39.20859 -85.39528 20105 ft 362 kts 292°
2026-04-30 01:28 39.22151 -85.42343 20609 ft 370 kts 302°
2026-04-30 01:28 39.23748 -85.44888 21166 ft 373 kts 304°
2026-04-30 01:28 39.25423 -85.47454 21676 ft 375 kts 304°
2026-04-30 01:28 39.27109 -85.50035 22183 ft 377 kts 304°
2026-04-30 01:29 39.28797 -85.52639 22660 ft 379 kts 303°
2026-04-30 01:29 39.30485 -85.55266 23122 ft 382 kts 303°
2026-04-30 01:29 39.32177 -85.57919 23572 ft 384 kts 303°
2026-04-30 01:29 39.33875 -85.60594 23960 ft 386 kts 303°
2026-04-30 01:30 39.35516 -85.63337 24229 ft 386 kts 297°
2026-04-30 01:30 39.36810 -85.66382 24450 ft 388 kts 292°
2026-04-30 01:30 39.38035 -85.69492 24811 ft 389 kts 292°
2026-04-30 01:30 39.39268 -85.72597 25228 ft 389 kts 292°
2026-04-30 01:31 39.40511 -85.75710 25603 ft 389 kts 292°
2026-04-30 01:31 39.41759 -85.78826 25948 ft 391 kts 292°
2026-04-30 01:31 39.43012 -85.81948 26270 ft 392 kts 292°
2026-04-30 01:31 39.44272 -85.85085 26593 ft 394 kts 292°
2026-04-30 01:32 39.45537 -85.88234 26913 ft 395 kts 292°
2026-04-30 01:32 39.46804 -85.91391 27235 ft 396 kts 292°
2026-04-30 01:32 39.48074 -85.94556 27541 ft 397 kts 292°
2026-04-30 01:32 39.49338 -85.97708 28165 ft 390 kts 292°
2026-04-30 01:33 39.50565 -86.00759 29193 ft 374 kts 292°
2026-04-30 01:33 39.51746 -86.03696 30259 ft 361 kts 292°
2026-04-30 01:33 39.52890 -86.06549 30886 ft 354 kts 291°
2026-04-30 01:33 39.54015 -86.09371 31312 ft 352 kts 291°
2026-04-30 01:34 39.55138 -86.12198 31550 ft 355 kts 291°
2026-04-30 01:34 39.56273 -86.15058 31759 ft 358 kts 291°
2026-04-30 01:34 39.57412 -86.17931 31996 ft 360 kts 291°
2026-04-30 01:34 39.58543 -86.20780 31991 ft 360 kts 291°
2026-04-30 01:35 39.60826 -86.26528 32019 ft 357 kts 291°
2026-04-30 01:35 39.63096 -86.32257 32021 ft 357 kts 291°
2026-04-30 01:36 39.65361 -86.37984 32020 ft 357 kts 291°
2026-04-30 01:36 39.67624 -86.43717 32019 ft 357 kts 291°
2026-04-30 01:37 39.69886 -86.49458 32018 ft 357 kts 291°
2026-04-30 01:37 39.72145 -86.55202 32023 ft 357 kts 291°
2026-04-30 01:38 39.74404 -86.60956 32038 ft 358 kts 291°
2026-04-30 01:38 39.76664 -86.66722 32069 ft 359 kts 292°
2026-04-30 01:39 39.78932 -86.72525 32044 ft 361 kts 292°
2026-04-30 01:39 39.81192 -86.78316 32036 ft 362 kts 292°
2026-04-30 01:40 39.83470 -86.84166 32035 ft 363 kts 291°
2026-04-30 01:40 39.85750 -86.90030 32037 ft 364 kts 291°
2026-04-30 01:41 39.88032 -86.95912 32033 ft 364 kts 291°
2026-04-30 01:41 39.90310 -87.01793 32045 ft 364 kts 291°
2026-04-30 01:42 39.92216 -87.06724 32044 ft 363 kts 291°
2026-04-30 01:42 39.94485 -87.12604 32044 ft 363 kts 291°
2026-04-30 01:43 39.96733 -87.18441 32042 ft 362 kts 291°
2026-04-30 01:43 39.98989 -87.24311 32033 ft 362 kts 291°
2026-04-30 01:44 40.01241 -87.30181 32045 ft 363 kts 292°
2026-04-30 01:44 40.03500 -87.36086 32044 ft 365 kts 292°
2026-04-30 01:45 40.05773 -87.42039 32053 ft 368 kts 292°
2026-04-30 01:45 40.08060 -87.48038 32071 ft 370 kts 292°
2026-04-30 01:46 40.10359 -87.54081 32072 ft 373 kts 292°
2026-04-30 01:46 40.12668 -87.60160 32077 ft 374 kts 292°
2026-04-30 01:47 40.14982 -87.66265 32074 ft 375 kts 292°
2026-04-30 01:47 40.17297 -87.72386 32067 ft 375 kts 292°
2026-04-30 01:48 40.19606 -87.78504 32068 ft 375 kts 292°
2026-04-30 01:48 40.21908 -87.84615 32064 ft 374 kts 292°
2026-04-30 01:49 40.24199 -87.90708 32078 ft 373 kts 292°
2026-04-30 01:49 40.26488 -87.96811 32064 ft 374 kts 292°
2026-04-30 01:50 40.28777 -88.02931 32062 ft 374 kts 292°
2026-04-30 01:50 40.31065 -88.09059 32056 ft 375 kts 292°
2026-04-30 01:51 40.33356 -88.15209 32083 ft 376 kts 292°
2026-04-30 01:51 40.35647 -88.21369 32084 ft 376 kts 292°
2026-04-30 01:52 40.37940 -88.27548 32080 ft 377 kts 292°
2026-04-30 01:52 40.40234 -88.33741 32078 ft 378 kts 292°
2026-04-30 01:53 40.42527 -88.39947 32072 ft 378 kts 292°
2026-04-30 01:53 40.44819 -88.46162 32067 ft 378 kts 292°
2026-04-30 01:54 40.47108 -88.52384 32114 ft 379 kts 292°
2026-04-30 01:54 40.49397 -88.58616 32080 ft 379 kts 292°
2026-04-30 01:55 40.51666 -88.64806 32084 ft 378 kts 292°
2026-04-30 01:55 40.53939 -88.71024 32076 ft 377 kts 292°
2026-04-30 01:56 40.56218 -88.77270 32079 ft 376 kts 292°
2026-04-30 01:56 40.58454 -88.83413 32082 ft 375 kts 292°
2026-04-30 01:57 40.60650 -88.89458 32077 ft 374 kts 292°
2026-04-30 01:57 40.62890 -88.95638 32085 ft 374 kts 292°
2026-04-30 01:58 40.65130 -89.01829 32092 ft 375 kts 292°
2026-04-30 01:58 40.67371 -89.08040 32087 ft 376 kts 292°
2026-04-30 01:59 40.70736 -89.17386 32086 ft 377 kts 292°
2026-04-30 02:00 40.72979 -89.23635 32094 ft 377 kts 292°
2026-04-30 02:00 40.75222 -89.29896 32099 ft 378 kts 292°
2026-04-30 02:01 40.77466 -89.36173 32093 ft 378 kts 292°
2026-04-30 02:01 40.79706 -89.42456 32102 ft 379 kts 292°
2026-04-30 02:02 40.81948 -89.48754 31907 ft 381 kts 292°
2026-04-30 02:02 40.83068 -89.51908 31653 ft 378 kts 292°
2026-04-30 02:02 40.84184 -89.55051 31396 ft 378 kts 292°
2026-04-30 02:02 40.85299 -89.58198 31159 ft 379 kts 292°
2026-04-30 02:03 40.86419 -89.61362 30919 ft 381 kts 292°
2026-04-30 02:03 40.87542 -89.64536 30674 ft 382 kts 292°
2026-04-30 02:03 40.88666 -89.67719 30437 ft 383 kts 292°
2026-04-30 02:03 40.89792 -89.70909 30212 ft 383 kts 292°
2026-04-30 02:04 40.90916 -89.74095 30167 ft 383 kts 292°
2026-04-30 02:04 40.93141 -89.80415 30111 ft 376 kts 292°
2026-04-30 02:05 40.95352 -89.86715 30102 ft 379 kts 292°
2026-04-30 02:05 40.97568 -89.93037 30101 ft 379 kts 291°
2026-04-30 02:05 40.98668 -89.96182 29618 ft 382 kts 292°
2026-04-30 02:06 40.99799 -89.99350 29157 ft 381 kts 294°
2026-04-30 02:06 41.01182 -90.02353 28700 ft 384 kts 301°
2026-04-30 02:06 41.02730 -90.05243 28258 ft 386 kts 301°
2026-04-30 02:06 41.04290 -90.08151 27809 ft 388 kts 301°
2026-04-30 02:07 41.05855 -90.11074 27363 ft 389 kts 301°
2026-04-30 02:07 41.07419 -90.14007 26928 ft 390 kts 301°
2026-04-30 02:07 41.08984 -90.16953 26501 ft 391 kts 301°
2026-04-30 02:07 41.10548 -90.19904 26079 ft 392 kts 301°
2026-04-30 02:08 41.12113 -90.22865 25658 ft 392 kts 301°
2026-04-30 02:08 41.13677 -90.25827 25269 ft 392 kts 301°
2026-04-30 02:08 41.15238 -90.28788 24859 ft 391 kts 301°
2026-04-30 02:08 41.16794 -90.31743 24455 ft 390 kts 301°
2026-04-30 02:09 41.18342 -90.34686 24062 ft 388 kts 301°
2026-04-30 02:09 41.19882 -90.37615 23663 ft 386 kts 301°
2026-04-30 02:09 41.21411 -90.40527 23171 ft 383 kts 302°
2026-04-30 02:09 41.22928 -90.43418 22710 ft 380 kts 302°
2026-04-30 02:10 41.24431 -90.46287 22249 ft 377 kts 302°
2026-04-30 02:10 41.25927 -90.49143 21792 ft 375 kts 302°
2026-04-30 02:10 41.27407 -90.51974 21345 ft 372 kts 302°
2026-04-30 02:10 41.28879 -90.54792 20901 ft 370 kts 302°
2026-04-30 02:11 41.30344 -90.57599 20479 ft 368 kts 302°
2026-04-30 02:11 41.31793 -90.60376 20164 ft 367 kts 302°
2026-04-30 02:11 41.33188 -90.63054 20144 ft 367 kts 302°
2026-04-30 02:11 41.34647 -90.65834 20144 ft 366 kts 303°
2026-04-30 02:12 41.36193 -90.68547 20112 ft 370 kts 305°
2026-04-30 02:12 41.37799 -90.71245 19784 ft 372 kts 306°
2026-04-30 02:12 41.39411 -90.73919 19468 ft 368 kts 306°
2026-04-30 02:12 41.41002 -90.76561 19138 ft 365 kts 306°
2026-04-30 02:13 41.42583 -90.79204 18824 ft 364 kts 306°
2026-04-30 02:13 41.44156 -90.81847 18520 ft 364 kts 306°
2026-04-30 02:13 41.45731 -90.84506 17896 ft 368 kts 306°
2026-04-30 02:13 41.47307 -90.87175 17251 ft 365 kts 306°
2026-04-30 02:14 41.48877 -90.89838 16615 ft 364 kts 307°
2026-04-30 02:14 41.50430 -90.92478 15988 ft 361 kts 307°
2026-04-30 02:14 41.51973 -90.95104 15384 ft 358 kts 307°
2026-04-30 02:14 41.53500 -90.97705 14780 ft 355 kts 307°
2026-04-30 02:15 41.55016 -91.00289 14196 ft 352 kts 308°
2026-04-30 02:15 41.56521 -91.02858 13589 ft 350 kts 308°
2026-04-30 02:15 41.58015 -91.05410 12942 ft 345 kts 308°
2026-04-30 02:15 41.59474 -91.07904 12303 ft 336 kts 309°
2026-04-30 02:16 41.60875 -91.10303 11689 ft 328 kts 309°
2026-04-30 02:16 41.62264 -91.12682 11082 ft 321 kts 309°
2026-04-30 02:16 41.63623 -91.15011 10486 ft 315 kts 309°
2026-04-30 02:16 41.64941 -91.17276 10174 ft 300 kts 309°
2026-04-30 02:17 41.66185 -91.19412 10052 ft 282 kts 309°
2026-04-30 02:17 41.67350 -91.21414 10010 ft 263 kts 310°
2026-04-30 02:17 41.68434 -91.23278 9982 ft 246 kts 310°
2026-04-30 02:17 41.69485 -91.25081 9668 ft 245 kts 310°
2026-04-30 02:18 41.70534 -91.26881 9135 ft 244 kts 309°
2026-04-30 02:18 41.71570 -91.28662 8630 ft 240 kts 309°
2026-04-30 02:18 41.72586 -91.30411 8237 ft 237 kts 309°
2026-04-30 02:18 41.73596 -91.32150 7848 ft 236 kts 309°
2026-04-30 02:19 41.74605 -91.33887 7458 ft 236 kts 309°
2026-04-30 02:19 41.75611 -91.35623 7079 ft 236 kts 308°
2026-04-30 02:19 41.76606 -91.37340 6692 ft 230 kts 308°
2026-04-30 02:19 41.77571 -91.39006 6301 ft 223 kts 308°
2026-04-30 02:20 41.78510 -91.40630 5899 ft 219 kts 308°
2026-04-30 02:20 41.79434 -91.42229 5477 ft 216 kts 309°
2026-04-30 02:20 41.80348 -91.43809 5066 ft 213 kts 309°
2026-04-30 02:20 41.81252 -91.45373 4644 ft 212 kts 309°
2026-04-30 02:21 41.82148 -91.46925 4225 ft 210 kts 309°
2026-04-30 02:21 41.83029 -91.48452 3898 ft 204 kts 309°
2026-04-30 02:21 41.83881 -91.49929 3597 ft 196 kts 309°
2026-04-30 02:21 41.84701 -91.51351 3276 ft 189 kts 310°
2026-04-30 02:22 41.85487 -91.52716 2964 ft 180 kts 310°
2026-04-30 02:22 41.86252 -91.54044 2772 ft 181 kts 310°
2026-04-30 02:22 41.87023 -91.55382 2762 ft 178 kts 310°
2026-04-30 02:22 41.87743 -91.56635 2689 ft 160 kts 310°
2026-04-30 02:23 41.88189 -91.57919 2604 ft 152 kts 279°
2026-04-30 02:23 41.88271 -91.59349 2438 ft 157 kts 279°
2026-04-30 02:23 41.88324 -91.60793 2231 ft 153 kts 276°
2026-04-30 02:23 41.88342 -91.62206 2024 ft 151 kts 275°
2026-04-30 02:24 41.88350 -91.63608 1792 ft 148 kts 274°
2026-04-30 02:24 41.88362 -91.64994 1612 ft 150 kts 275°
2026-04-30 02:24 41.88393 -91.66397 1416 ft 151 kts 273°
2026-04-30 02:24 41.88403 -91.67807 1208 ft 153 kts 272°
2026-04-30 02:25 41.88423 -91.69238 991 ft 153 kts 272°
2026-04-30 02:25 41.88439 -91.70606 874 ft 141 kts 272°
2026-04-30 02:25 41.88453 -91.71629 857 ft 75 kts 271°
2026-04-30 02:25 41.88458 -91.72082 863 ft 34 kts 271°
2026-04-30 02:26 41.88477 -91.72294 847 ft 16 kts 313°
2026-04-30 02:26 41.88550 -91.72311 854 ft 0 kts
2026-04-30 02:27 41.88577 -91.72305 856 ft 6 kts 25°
2026-04-30 02:27 41.88596 -91.72227 860 ft 10 kts 91°
2026-04-30 02:27 41.88594 -91.72072 850 ft 22 kts 91°
2026-04-30 02:28 41.88592 -91.71935 863 ft 21 kts 90°
2026-04-30 02:28 41.88592 -91.71831 863 ft 0 kts 90°
2026-04-30 03:21 41.88592 -91.71829 863 ft 4 kts 90°
2026-04-30 03:21 41.88590 -91.71685 865 ft 26 kts 89°
2026-04-30 03:22 41.88587 -91.71459 866 ft 29 kts 91°
2026-04-30 03:22 41.88584 -91.71197 869 ft 27 kts 91°
2026-04-30 03:22 41.88582 -91.70952 871 ft 25 kts 90°
2026-04-30 03:22 41.88581 -91.70724 870 ft 24 kts 90°
2026-04-30 03:23 41.88592 -91.70567 870 ft 14 kts 53°
2026-04-30 03:23 41.88684 -91.70539 870 ft 14 kts
2026-04-30 03:23 41.88774 -91.70520 871 ft 13 kts 31°
2026-04-30 03:23 41.88828 -91.70430 871 ft 5 kts 55°
2026-04-30 03:24 41.88844 -91.70399 871 ft 0 kts 54°